User: anonymous   Login
Location: �perlecques
(50.8057°N, 2.1521°E)
Time: 12:47:52
(UTC+00:00)
Language:

deb Explorer IX - Orbit

View from above orbital plane
View from above orbital plane
View from above satellite
View from above satellite

Ground track
Ground track

The orbit data is extracted from the following two-line orbital elements,

1 00085U 61004C   21213.91771291  .00004236  00000-0  91311-3 0  9993
2 00085  38.7674  84.8011 0382046 356.7181   3.1080 14.21995903989513
Epoch (UTC): 01 August 2021 22:01:30
Eccentricity: 0.0382046
inclination: 38.7674°
perigee height: 543 km
apogee height: 1093 km
right ascension of ascending node: 84.8011°
argument of perigee: 356.7181°
revolutions per day: 14.21995903
mean anomaly at epoch: 3.1080°
orbit number at epoch: 98951

The dashed part of the orbit path shows where the satellite is in the earth's shadow,  

DLR